EW9449 Weather Reports


time (UTC)temp
C
wind
direction
speed
KPH
gust
KPH
rain 1hr
cm
rain 24hr
cm
rain mn
cm
humidity
%
barometer
mb
20260508191538 22 203 4.8 12.9 0.00 0.00 0.00 23 1016.7
20260508190519 22 293 1.6 4.8 0.00 0.00 0.00 23 1016.7
20260508185519 23 248 3.2 11.3 0.00 0.00 0.00 23 1016.8
20260508184519 23 270 3.2 12.9 0.00 0.00 0.00 24 1017.3
20260508183520 23 293 3.2 11.3 0.00 0.00 0.00 23 1017.3
20260508182520 22 225 3.2 8.0 0.00 0.00 0.00 25 1017.0
20260508181519 22 293 3.2 16.1 0.00 0.00 0.00 24 1017.0
20260508180559 22 270 3.2 14.5 0.00 0.00 0.00 24 1017.1
20260508175519 22 270 3.2 6.4 0.00 0.00 0.00 26 1017.2
20260508174519 22 270 1.6 9.7 0.00 0.00 0.00 30 1017.4
20260508173540 22 270 3.2 9.7 0.00 0.00 0.00 26 1017.3
20260508172540 21 270 3.2 4.8 0.00 0.00 0.00 28 1017.3
20260508171519 21 248 3.2 9.7 0.00 0.00 0.00 27 1017.2
20260508170519 21 248 3.2 4.8 0.00 0.00 0.00 29 1017.2
20260508165519 21 248 1.6 6.4 0.00 0.00 0.00 30 1017.2
20260508164519 20 248 3.2 6.4 0.00 0.00 0.00 32 1016.9
20260508163519 20 248 3.2 6.4 0.00 0.00 0.00 33 1016.9
20260508162539 20 248 3.2 6.4 0.00 0.00 0.00 31 1016.8
20260508161519 20 270 3.2 11.3 0.00 0.00 0.00 32 1016.6
20260508160519 19 0.0 3.2 0.00 0.00 0.00 33 1016.2
20260508155519 18 45 1.6 4.8 0.00 0.00 0.00 36 1016.2
20260508154519 17 0.0 0.0 0.00 0.00 0.00 38 1016.3
20260508153520 17 0.0 0.0 0.00 0.00 0.00 40 1016.2
20260508152539 16 0.0 1.6 0.00 0.00 0.00 42 1016.1
20260508151519 16 0.0 1.6 0.00 0.00 0.00 42 1016.1
20260508150519 15 45 1.6 3.2 0.00 0.00 0.00 43 1016.0
20260508145519 14 45 1.6 3.2 0.00 0.00 0.00 46 1016.0
20260508144539 13 0.0 3.2 0.00 0.00 0.00 48 1016.3
20260508143519 13 0.0 0.0 0.00 0.00 0.00 51 1016.4
20260508142519 12 0.0 0.0 0.00 0.00 0.00 53 1016.7
20260508141519 12 0.0 0.0 0.00 0.00 0.00 57 1016.7
20260508140519 11 0.0 0.0 0.00 0.00 0.00 59 1016.7
20260508135519 11 0.0 0.0 0.00 0.00 0.00 59 1016.2
20260508134518 10 0.0 0.0 0.00 0.00 0.00 59 1016.1
20260508133519 10 45 3.2 4.8 0.00 0.00 0.00 57 1015.9
20260508132519 10 0.0 4.8 0.00 0.00 0.00 56 1016.1
20260508131518 10 45 1.6 4.8 0.00 0.00 0.00 55 1016.1
20260508130540 10 45 3.2 4.8 0.00 0.00 0.00 55 1015.9
20260508125519 10 45 3.2 4.8 0.00 0.00 0.00 55 1015.9
20260508124518 10 45 4.8 4.8 0.00 0.00 0.00 55 1015.4
20260508123518 10 45 3.2 4.8 0.00 0.00 0.00 55 1015.4
20260508122519 10 0.0 1.6 0.00 0.00 0.00 55 1015.1
20260508121518 10 45 1.6 3.2 0.00 0.00 0.00 54 1014.8
20260508120519 10 0.0 0.0 0.00 0.00 0.00 54 1014.8
20260508115518 10 0.0 0.0 0.00 0.00 0.00 54 1014.9
20260508114519 11 45 3.2 6.4 0.00 0.00 0.00 53 1015.1
20260508113518 10 45 4.8 6.4 0.00 0.00 0.00 54 1015.1
20260508112519 10 0.0 4.8 0.00 0.00 0.00 55 1015.2
20260508111518 10 0.0 0.0 0.00 0.00 0.00 56 1015.6
20260508110518 10 0.0 0.0 0.00 0.00 0.00 55 1015.3
20260508105519 10 0.0 1.6 0.00 0.00 0.00 55 1015.3
20260508104600 10 45 1.6 6.4 0.00 0.00 0.00 55 1015.2
20260508103538 11 0.0 3.2 0.00 0.00 0.00 55 1015.2
20260508102519 11 45 3.2 4.8 0.00 0.00 0.00 54 1015.2
20260508101519 11 0.0 1.6 0.00 0.00 0.00 53 1015.1
20260508100518 11 45 3.2 6.4 0.00 0.00 0.00 54 1015.3
20260508095539 11 0.0 0.0 0.00 0.00 0.00 53 1015.3
20260508094518 11 45 1.6 4.8 0.00 0.00 0.00 53 1014.9
20260508093518 11 0.0 0.0 0.00 0.00 0.00 54 1014.8
20260508092518 11 0.0 0.0 0.00 0.00 0.00 53 1015.1
20260508091538 11 0.0 0.0 0.00 0.00 0.00 53 1015.2
20260508090518 11 0.0 0.0 0.00 0.00 0.00 52 1015.1
20260508085539 11 0.0 3.2 0.00 0.00 0.00 52 1015.1
20260508084518 11 45 3.2 4.8 0.00 0.00 0.00 51 1015.2
20260508083518 11 45 3.2 4.8 0.00 0.00 0.00 50 1015.2
20260508082519 12 45 3.2 4.8 0.00 0.00 0.00 49 1014.9
20260508081517 12 45 1.6 4.8 0.00 0.00 0.00 48 1014.9
20260508080538 12 45 4.8 6.4 0.00 0.00 0.00 47 1014.9
20260508075518 12 45 3.2 4.8 0.00 0.00 0.00 46 1015.0
20260508074518 12 45 3.2 4.8 0.00 0.00 0.00 46 1014.9
20260508073518 12 0.0 3.2 0.00 0.00 0.00 46 1015.0
20260508072518 12 45 4.8 6.4 0.00 0.00 0.00 45 1015.1
20260508071518 12 45 3.2 4.8 0.00 0.00 0.00 46 1014.8
20260508070518 12 45 3.2 4.8 0.00 0.00 0.00 45 1014.9
20260508065517 12 45 3.2 4.8 0.00 0.00 0.00 45 1015.0
20260508064518 13 0.0 0.0 0.00 0.00 0.00 44 1014.9
20260508063518 13 45 3.2 4.8 0.00 0.00 0.00 44 1014.7
20260508062519 13 45 4.8 6.4 0.00 0.00 0.00 44 1014.7
20260508061518 13 45 4.8 4.8 0.00 0.00 0.00 44 1014.7
20260508060517 13 45 4.8 6.4 0.00 0.00 0.00 45 1014.6
20260508055519 13 45 4.8 6.4 0.00 0.00 0.00 46 1014.5
20260508054540 13 45 4.8 6.4 0.00 0.00 0.00 46 1014.5
20260508053519 13 45 4.8 6.4 0.00 0.00 0.00 45 1014.4
20260508052519 13 45 1.6 4.8 0.00 0.00 0.00 45 1014.4
20260508051518 13 0.0 0.0 0.00 0.00 0.00 44 1014.1
20260508050518 14 0.0 1.6 0.00 0.00 0.00 43 1014.1
20260508045540 14 45 1.6 4.8 0.00 0.00 0.00 42 1014.0
20260508044519 14 45 3.2 4.8 0.00 0.00 0.00 41 1013.8
20260508043519 15 45 4.8 6.4 0.00 0.00 0.00 40 1014.1
20260508042519 15 45 3.2 4.8 0.00 0.00 0.00 40 1013.7
20260508041518 15 45 3.2 4.8 0.00 0.00 0.00 40 1013.7
20260508040518 15 45 3.2 4.8 0.00 0.00 0.00 39 1013.7
20260508035518 15 45 3.2 4.8 0.00 0.00 0.00 38 1013.7
20260508034519 15 45 4.8 6.4 0.00 0.00 0.00 38 1013.6
20260508033519 16 45 3.2 4.8 0.00 0.00 0.00 38 1013.9
20260508032520 16 45 3.2 4.8 0.00 0.00 0.00 37 1013.9
20260508031539 17 45 1.6 4.8 0.00 0.00 0.00 35 1013.5
20260508030519 18 45 3.2 4.8 0.00 0.00 0.00 34 1013.7
20260508025519 19 45 3.2 4.8 0.00 0.00 0.00 32 1013.7
20260508024538 20 45 3.2 4.8 0.00 0.00 0.00 32 1013.8
20260508023539 21 45 3.2 4.8 0.00 0.00 0.00 29 1013.8
20260508022600 22 0.0 0.0 0.00 0.00 0.00 28 1014.0
20260508021519 23 0.0 3.2 0.00 0.00 0.00 25 1013.6
20260508020518 23 0.0 1.6 0.00 0.00 0.00 25 1013.6
20260508015518 24 0.0 0.0 0.00 0.00 0.00 24 1013.6
20260508014518 25 0.0 1.6 0.00 0.00 0.00 23 1013.6
20260508013518 25 0.0 4.8 0.00 0.00 0.00 21 1013.8
20260508012539 25 68 1.6 6.4 0.00 0.00 0.00 21 1013.6
20260508011518 26 68 1.6 4.8 0.00 0.00 0.00 21 1014.0
20260508010518 26 68 1.6 4.8 0.00 0.00 0.00 21 1014.1
20260508005539 26 68 1.6 6.4 0.00 0.00 0.00 21 1013.9
20260508004519 25 68 1.6 4.8 0.00 0.00 0.00 21 1013.7
20260508003538 24 68 1.6 6.4 0.00 0.00 0.00 22 1013.8
20260508002539 23 293 1.6 4.8 0.00 0.00 0.00 23 1013.6
20260508001518 23 293 1.6 3.2 0.00 0.00 0.00 24 1013.6
20260508000519 23 0.0 0.0 0.00 0.00 0.00 25 1013.8
20260507235529 23 0.0 1.6 0.00 0.00 0.00 26 1013.6
20260507234519 23 293 1.6 3.2 0.00 0.00 0.00 24 1014.0
20260507233518 23 293 1.6 4.8 0.00 0.00 0.00 23 1014.0
20260507232518 24 45 1.6 6.4 0.00 0.00 0.00 22 1014.4
20260507231519 25 23 3.2 12.9 0.00 0.00 0.00 22 1014.6
20260507230517 23 270 3.2 6.4 0.00 0.00 0.00 24 1014.6
20260507225518 24 270 1.6 6.4 0.00 0.00 0.00 23 1015.2
20260507224518 25 270 1.6 6.4 0.00 0.00 0.00 22 1015.3
20260507223517 24 270 3.2 11.3 0.00 0.00 0.00 24 1015.2
20260507222518 23 270 3.2 9.7 0.00 0.00 0.00 23 1015.3
20260507221518 24 270 1.6 6.4 0.00 0.00 0.00 22 1015.7
20260507220518 24 248 3.2 11.3 0.00 0.00 0.00 24 1015.9
20260507215517 24 315 3.2 6.4 0.00 0.00 0.00 23 1015.9
20260507214518 24 270 1.6 9.7 0.00 0.00 0.00 24 1016.1
20260507213530 23 270 3.2 12.9 0.00 0.00 0.00 21 1016.3
20260507212518 24 270 1.6 4.8 0.00 0.00 0.00 23 1016.5
20260507211517 25 270 1.6 6.4 0.00 0.00 0.00 21 1016.9
20260507210538 25 270 1.6 6.4 0.00 0.00 0.00 21 1017.1
20260507205519 23 270 3.2 11.3 0.00 0.00 0.00 22 1016.9
20260507204541 23 248 3.2 8.0 0.00 0.00 0.00 21 1016.9
20260507203518 24 225 1.6 6.4 0.00 0.00 0.00 20 1017.0
20260507202517 22 225 1.6 6.4 0.00 0.00 0.00 21 1017.0
20260507201518 22 225 1.6 6.4 0.00 0.00 0.00 21 1016.8
20260507200519 23 225 1.6 3.2 0.00 0.00 0.00 22 1017.1
20260507195519 22 0.0 3.2 0.00 0.00 0.00 22 1016.9
20260507194520 22 225 1.6 4.8 0.00 0.00 0.00 24 1017.0
20260507193518 22 225 1.6 3.2 0.00 0.00 0.00 23 1017.0
20260507192520 22 180 1.6 8.0 0.00 0.00 0.00 23 1017.4